This demonstration page uses our WeatherBlox Daily Observations layout. Learn more.

Left ArrowRight Arrow

Hourly Observations for December 21, 2015

Temp ( °F °C ) Dew Point ( °F °C ) Humidity (%) Winds ( mph kmh ) Pressure ( in mb ) Visibility ( mi km ) Precip ( " mm )
12:53 am 00:53 Clear 47 8.3 23 -5 39 39 VRB 5 7 30.15 1021 10 16 N/A
1:53 am 01:53 Mostly Clear 49 9.4 24 -4.4 38 38 S 5 7 30.12 1020 10 16 N/A
2:53 am 02:53 Clear 49 9.4 24 -4.4 38 38 SSW 8 13 30.12 1020 10 16 N/A
3:53 am 03:53 Cloudy 50 10 24 -4.4 36 36 VRB 7 11 30.09 1019 10 16 N/A
4:53 am 04:53 Mostly Cloudy 49 9.4 24 -4.4 38 38 S 3 6 30.08 1019 10 16 N/A
5:53 am 05:53 Cloudy 50 10 26 -3.3 39 39 VRB 3 6 30.06 1018 10 16 N/A
6:53 am 06:53 Cloudy with Light Rain 46 7.8 32 undefined 58 58 VRB 6 9 30.06 1018 10 16 0.03 0.76
7:53 am 07:53 Cloudy with Light Rain 46 7.8 32 undefined 58 58 S 8 13 30.03 1017 10 16 0.02 0.51
8:53 am 08:53 Cloudy 47 8.3 31 -0.6 54 54 VRB 7 11 30.01 1016 10 16 N/A
9:53 am 09:53 Cloudy with Light Rain 46 7.8 32 undefined 58 58 VRB 3 6 30.03 1017 5 8 0.02 0.51
10:53 am 10:53 Cloudy with Light Rain 47 8.3 31 -0.6 54 54 S 8 13 30.01 1016 6 10 0.03 0.76
11:12 am 11:12 Cloudy with Rain 47 8.3 31 -0.6 54 54 S 8 13 30.03 1017 3 4 0.04 1.02
11:31 am 11:31 Cloudy with Light Rain 47 8.3 31 -0.6 54 54 SSW 3 6 30.03 1017 3 5 0.06 1.52
11:38 am 11:38 Cloudy with Light Rain 47 8.3 31 -0.6 54 54 SSW 3 6 30.03 1017 3 4 0.07 1.78
11:45 am 11:45 Cloudy with Light Rain 47 8.3 31 -0.6 54 54 S 3 6 30.03 1017 4 6 0.07 1.78
11:53 am 11:53 Cloudy with Light Rain 47 8.3 31 -0.6 54 54 S 3 6 30.00 1016 4 6 0.07 1.78
12:53 pm 12:53 Cloudy with Light Rain 50 10 31 -0.6 48 48 SSW 12 19 29.97 1015 6 10 0.01 0.25
1:53 pm 13:53 Cloudy with Haze 52 11.1 30 -1.1 43 43 VRB 7 11 29.96 1015 6 10 N/A
2:53 pm 14:53 Cloudy 53 11.7 29 -1.7 40 40 SW 9 15 29.95 1014 10 16 N/A
3:53 pm 15:53 Cloudy 54 12.2 29 -1.7 38 38 VRB 6 9 29.94 1014 10 16 N/A
4:53 pm 16:53 Cloudy 54 12.2 28 -2.2 37 37 SW 6 9 29.94 1014 10 16 N/A
5:53 pm 17:53 Cloudy 55 12.8 52 11.1 90 90 S 8 13 29.94 1014 10 16 N/A
6:53 pm 18:53 Cloudy 55 12.8 53 11.7 93 93 SSW 6 9 29.94 1014 10 16 N/A
7:53 pm 19:53 Cloudy with Light Rain 55 12.8 53 11.7 93 93 SSW 6 9 29.93 1013 6 10 N/A
8:53 pm 20:53 Cloudy 56 13.3 54 12.2 93 93 S 5 7 29.91 1013 10 16 0.01 0.25
9:25 pm 21:25 Cloudy 56 13.3 54 12.2 93 93 VRB 3 6 29.91 1013 10 16 N/A
9:53 pm 21:53 Cloudy with Light Rain 56 13.3 54 12.2 93 93 S 5 7 29.90 1013 4 6 N/A
10:00 pm 22:00 Cloudy with Light Rain 56 13.3 54 12.2 93 93 VRB 5 7 29.88 1012 3 5 0.01 0.25
10:08 pm 22:08 Cloudy with Light Rain 56 13.3 54 12.2 93 93 S 3 6 29.91 1013 3 5 0.01 0.25
10:16 pm 22:16 Cloudy with Light Rain 56 13.3 54 12.2 93 93 VRB 3 6 29.88 1012 3 5 0.02 0.51
10:28 pm 22:28 Cloudy with Light Rain 56 13.3 54 12.2 93 93 VRB 5 7 29.88 1012 5 8 0.03 0.76
10:43 pm 22:43 Cloudy with Light Rain 56 13.3 54 12.2 93 93 N N/A 29.88 1012 4 6 0.05 1.27
10:50 pm 22:50 Cloudy with Light Rain 55 13 54 12 94 94 N N/A 29.88 1012 3 5 0.06 1.52
10:53 pm 22:53 Cloudy with Light Rain 55 12.8 54 12.2 96 96 N N/A 29.88 1012 3 5 0.06 1.52
11:22 pm 23:22 Cloudy with Mist and Fog 55 12.8 54 12.2 96 96 N N/A 29.88 1012 6 10 N/A
11:34 pm 23:34 Cloudy with Mist and Fog 55 12.8 54 12.2 96 96 VRB 3 6 29.88 1012 5 8 N/A
11:53 pm 23:53 Cloudy with Light Rain 56 13.3 55 12.8 97 97 S 6 9 29.86 1011 4 6 0.01 0.25

Powered by AerisWeather